This is the latest recevied weather packets stored in our database for station/object DB0SMU-12. If no packets are shown the sender has not sent any weather packets the latest 1 day(s).
| Time | Temp. | Humidity | Pressure | Rain* | Wind** | Luminosity | Snow |
|---|---|---|---|---|---|---|---|
| 1778019541 | 12.22° C | 74% | 1010.4 hPa | 0 mm | 2.24 m/s, 219° | - | - |
| 1778019182 | 12.22° C | 74% | 1010.5 hPa | 0 mm | 1.79 m/s, 221° | - | - |
| 1778018998 | 12.22° C | 74% | 1010.5 hPa | 0 mm | 3.58 m/s, 207° | - | - |
| 1778018818 | 12.22° C | 75% | 1010.5 hPa | 0 mm | 2.68 m/s, 212° | - | - |
| 1778018637 | 12.22° C | 76% | 1010.6 hPa | 0 mm | 2.68 m/s, 215° | - | - |
| 1778018456 | 12.22° C | 76% | 1010.5 hPa | 0 mm | 3.58 m/s, 222° | - | - |
| 1778018275 | 12.22° C | 76% | 1010.4 hPa | 0 mm | 3.58 m/s, 220° | - | - |
| 1778018094 | 12.22° C | 77% | 1010.5 hPa | 0 mm | 3.58 m/s, 219° | - | - |
| 1778017913 | 12.22° C | 77% | 1010.4 hPa | 0 mm | 4.02 m/s, 225° | - | - |
| 1778017733 | 12.22° C | 77% | 1010.4 hPa | 0 mm | 4.02 m/s, 224° | - | - |
| 1778017552 | 12.22° C | 77% | 1010.4 hPa | 0 mm | 3.58 m/s, 225° | - | - |
| 1778017371 | 12.22° C | 77% | 1010.5 hPa | 0 mm | 4.02 m/s, 225° | - | - |
| 1778017190 | 12.22° C | 77% | 1010.6 hPa | 0 mm | 4.47 m/s, 225° | - | - |
| 1778017009 | 12.22° C | 76% | 1010.6 hPa | 0 mm | 4.47 m/s, 225° | - | - |
| 1778016828 | 12.22° C | 77% | 1010.6 hPa | 0 mm | 4.92 m/s, 221° | - | - |
| 1778016647 | 12.22° C | 76% | 1010.5 hPa | 0 mm | 4.02 m/s, 218° | - | - |
| 1778016467 | 12.22° C | 76% | 1010.6 hPa | 0 mm | 3.58 m/s, 225° | - | - |
| 1778016286 | 12.22° C | 76% | 1010.4 hPa | 0 mm | 3.58 m/s, 220° | - | - |
| 1778016105 | 12.78° C | 75% | 1010.4 hPa | 0 mm | 3.13 m/s, 225° | - | - |
| 1778015924 | 12.78° C | 75% | 1010.3 hPa | 0 mm | 2.24 m/s, 223° | - | - |
| 1778015743 | 12.78° C | 75% | 1010.2 hPa | 0 mm | 2.24 m/s, 235° | - | - |
| 1778015562 | 12.78° C | 75% | 1010.4 hPa | 0 mm | 2.68 m/s, 230° | - | - |
| 1778015381 | 12.78° C | 75% | 1010.3 hPa | 0 mm | 2.68 m/s, 223° | - | - |
| 1778015200 | 12.78° C | 75% | 1010.3 hPa | 0 mm | 4.02 m/s, 225° | - | - |
| 1778015019 | 12.78° C | 74% | 1010.4 hPa | 0 mm | 4.47 m/s, 228° | - | - |
* Rain latest hour (hover to see other rain measurements)
** Current wind speed in m/s (hover to see current wind gust speed)